Showing default

NAVSTAR 81 (USA 319), 48859

Orbit data source: Space-Track

NAVSTAR 81 (USA 319), 48859 is a payload satellite owned by USSF SMC (US) in MEO that was launched on Thu, 17 Jun 2021 UTC via an FALCON 9 launch vehicle from the Air Force Eastern Test Range (AFETR). Payload-class satellites include a variety of spacecraft equipped with specific instruments for various scientific and technological missions. These include communications satellites like Starlink; space stations such as the ISS; scientific satellites like the Hubble; Earth observation satellites from companies like Planet Labs, Umbra, and HawkEye 360; GPS; miniature CubeSats for education and research; and military/defense satellites.

Loading next visibility...
Identifier
48859, 2021-054A
Orbit
MEO
Country
Flag of USUS
Related business
Manufacturer
LMSS Denver
Mission
Operational Defense Navigation
Bus & Motor
A2100, LEROS-1C?
Mass
4,400 kg wet, ~2,160 kg dry
Launch date (UTC)
2021-06-17 (5 years ago)
Launch vehicle
FALCON 9
Launch site
Air Force Eastern Test Range (AFETR)
Object type
Payload
Rocket body
Debris
Shape & HBR
Box + 2 Pan, 7.0 m
Radar Cross Section
13.646 m², Large (>1 m²)

Expand to show TLE details & history
Last TLE update: 2 days ago

TLE from 2 days ago
0 NAVSTAR 81 (USA 319)
1 48859U 21054A   26171.00487014 -.00000094  00000-0  00000-0 0  9991
2 48859  55.1728 332.3454 0025356 228.5950 134.3763  2.00568793 36815
Epoch: 2026-06-20T00:07Z
TLE epoch observation values (Epoch: 2026-06-20T00:07:00.780Z)
Latitude
2.61673°
Longitude
64.17277°
Altitude
20,228.843 km
Speed
3.867 km/s
True Right ascension
22h 16m 36s
True Declination
2° 36' 45"
Sunlit
Object was in daylight at epoch
Visualization orbit readout
Latitude
Unknown
Longitude
Unknown
Altitude
Unknown
Speed
Unknown
Apparent Right ascension
Unknown
Apparent Declination
Unknown
Sunlit
N/A
Visualization observer readout
Local Sidereal Time
21:24:08
Azimuth
Unknown
Elevation
Unknown
Doppler factor
Unknown
Orbital elements
Apogee altitude
20,249.096 km
Perigee altitude
20,114.406 km
Semi-major axis
26,559.888 km
Eccentricity
0.00254
Inclination
55.1728°
RAAN
332.3454°
Arg. of periapsis
228.595°
True anomaly
134.58352°
Mean anomaly
134.3763°
Eccentric anomaly
134.47996°
Mean motion
0.50142 °/min
Orbital period
717.96 mins
BSTAR
0
Loading maneuver chart data...
Computing Atmospheric mass density...
Loading historical data...
Loading historical data...
Loading historical data...
Loading historical data...
Loading historical data...
Loading historical data...
Loading historical data...
Other satellites on launch #54 in the year 2021 (2021-06-17 UTC)

Documentation

Showing up to 5 results
|